contact:dominique.lefevre@mio.osupytheas.fr, maurice.libes@osupytheas.fr, didier.mallarino@osupytheas.fr
Project:EMSO http://www.emso-fr.org/EMSO-France
Depth: 2436.0 m
Title:EMSO Ligure Ouest : Data MII capteur MICROCAT
DateTime_Computer,Latitude,Longitude,Temperature,Conductivity,Pressure,DateTime_Instrument
DateTime_Computer,Latitude,Longitude,degC,S m-1,dbar,DateTime_Instrument
2023-07-15T00:02:19Z,42.805,6.029,13.3033,4.60092,2470.646,2023-7-15T02:04:36Z
2023-07-15T00:05:22Z,42.805,6.029,13.3034,4.60092,2470.661,2023-7-15T02:07:39Z
2023-07-15T00:08:25Z,42.805,6.029,13.3032,4.60092,2470.646,2023-7-15T02:10:42Z
2023-07-15T00:11:28Z,42.805,6.029,13.3031,4.60092,2470.684,2023-7-15T02:13:45Z
2023-07-15T00:14:31Z,42.805,6.029,13.3031,4.60092,2470.661,2023-7-15T02:16:48Z
2023-07-15T00:17:34Z,42.805,6.029,13.3034,4.60092,2470.646,2023-7-15T02:19:51Z
2023-07-15T00:20:37Z,42.805,6.029,13.3034,4.60092,2470.646,2023-7-15T02:22:54Z
2023-07-15T00:23:41Z,42.805,6.029,13.3031,4.60091,2470.646,2023-7-15T02:25:57Z
2023-07-15T00:26:44Z,42.805,6.029,13.3034,4.60090,2470.661,2023-7-15T02:29:00Z
2023-07-15T00:29:47Z,42.805,6.029,13.3029,4.60091,2470.646,2023-7-15T02:32:03Z
2023-07-15T00:32:50Z,42.805,6.029,13.3029,4.60091,2470.67,2023-7-15T02:35:06Z
2023-07-15T00:35:53Z,42.805,6.029,13.3032,4.60090,2470.67,2023-7-15T02:38:09Z
2023-07-15T00:38:56Z,42.805,6.029,13.3035,4.60092,2470.67,2023-7-15T02:41:13Z
2023-07-15T00:41:59Z,42.805,6.029,13.3031,4.60091,2470.646,2023-7-15T02:44:16Z
2023-07-15T00:45:02Z,42.805,6.029,13.3031,4.60098,2470.661,2023-7-15T02:47:19Z
2023-07-15T00:48:05Z,42.805,6.029,13.3031,4.60094,2470.67,2023-7-15T02:50:22Z
2023-07-15T00:51:08Z,42.805,6.029,13.3031,4.60094,2470.67,2023-7-15T02:53:25Z
2023-07-15T00:54:11Z,42.805,6.029,13.3036,4.60093,2470.624,2023-7-15T02:56:28Z
2023-07-15T00:57:14Z,42.805,6.029,13.3031,4.60092,2470.614,2023-7-15T02:59:31Z
2023-07-15T01:00:17Z,42.805,6.029,13.3034,4.60089,2470.693,2023-7-15T03:02:34Z
2023-07-15T01:03:21Z,42.805,6.029,13.3037,4.60091,2470.661,2023-7-15T03:05:37Z
2023-07-15T01:06:24Z,42.805,6.029,13.3031,4.60092,2470.684,2023-7-15T03:08:40Z
2023-07-15T01:09:27Z,42.805,6.029,13.3032,4.60091,2470.661,2023-7-15T03:11:43Z
2023-07-15T01:12:30Z,42.805,6.029,13.3031,4.60092,2470.67,2023-7-15T03:14:46Z
2023-07-15T01:15:33Z,42.805,6.029,13.3033,4.60092,2470.646,2023-7-15T03:17:50Z
2023-07-15T01:18:36Z,42.805,6.029,13.3032,4.60091,2470.646,2023-7-15T03:20:53Z
2023-07-15T01:21:39Z,42.805,6.029,13.3031,4.60092,2470.684,2023-7-15T03:23:56Z
2023-07-15T01:24:42Z,42.805,6.029,13.3035,4.60090,2470.67,2023-7-15T03:26:59Z
2023-07-15T01:27:45Z,42.805,6.029,13.3032,4.60092,2470.693,2023-7-15T03:30:02Z
2023-07-15T01:30:48Z,42.805,6.029,13.3031,4.60091,2470.646,2023-7-15T03:33:05Z
2023-07-15T01:33:51Z,42.805,6.029,13.3034,4.60092,2470.67,2023-7-15T03:36:08Z
2023-07-15T01:36:54Z,42.805,6.029,13.3031,4.60094,2470.684,2023-7-15T03:39:11Z
2023-07-15T01:39:58Z,42.805,6.029,13.3037,4.60092,2470.67,2023-7-15T03:42:14Z
2023-07-15T01:43:01Z,42.805,6.029,13.3035,4.60092,2470.661,2023-7-15T03:45:17Z
2023-07-15T01:46:04Z,42.805,6.029,13.3034,4.60092,2470.67,2023-7-15T03:48:20Z
2023-07-15T01:49:07Z,42.805,6.029,13.3032,4.60092,2470.646,2023-7-15T03:51:23Z
2023-07-15T01:52:10Z,42.805,6.029,13.3029,4.60091,2470.661,2023-7-15T03:54:26Z
2023-07-15T01:55:13Z,42.805,6.029,13.3032,4.60091,2470.67,2023-7-15T03:57:30Z
2023-07-15T01:58:16Z,42.805,6.029,13.3034,4.60092,2470.661,2023-7-15T04:00:33Z
2023-07-15T02:01:19Z,42.805,6.029,13.3034,4.60092,2470.646,2023-7-15T04:03:36Z
2023-07-15T02:04:22Z,42.805,6.029,13.3032,4.60092,2470.693,2023-7-15T04:06:39Z
2023-07-15T02:07:25Z,42.805,6.029,13.3030,4.60092,2470.693,2023-7-15T04:09:42Z
2023-07-15T02:10:28Z,42.805,6.029,13.3030,4.60093,2470.646,2023-7-15T04:12:45Z
2023-07-15T02:13:31Z,42.805,6.029,13.3031,4.60092,2470.693,2023-7-15T04:15:48Z
2023-07-15T02:16:34Z,42.805,6.029,13.3034,4.60092,2470.646,2023-7-15T04:18:51Z
2023-07-15T02:19:38Z,42.805,6.029,13.3032,4.60094,2470.684,2023-7-15T04:21:54Z
2023-07-15T02:22:41Z,42.805,6.029,13.3034,4.60094,2470.693,2023-7-15T04:24:57Z
2023-07-15T02:25:44Z,42.805,6.029,13.3031,4.60092,2470.684,2023-7-15T04:28:00Z
2023-07-15T02:28:47Z,42.805,6.029,13.3032,4.60094,2470.684,2023-7-15T04:31:03Z
2023-07-15T02:31:50Z,42.805,6.029,13.3031,4.60093,2470.693,2023-7-15T04:34:07Z
2023-07-15T02:34:53Z,42.805,6.029,13.3033,4.60099,2470.693,2023-7-15T04:37:10Z
2023-07-15T02:37:56Z,42.805,6.029,13.3032,4.60092,2470.67,2023-7-15T04:40:13Z
2023-07-15T02:40:59Z,42.805,6.029,13.3034,4.60094,2470.707,2023-7-15T04:43:16Z
2023-07-15T02:44:02Z,42.805,6.029,13.3034,4.60093,2470.67,2023-7-15T04:46:19Z
2023-07-15T02:47:05Z,42.805,6.029,13.3031,4.60101,2470.707,2023-7-15T04:49:22Z
2023-07-15T02:50:08Z,42.805,6.029,13.3030,4.60102,2470.693,2023-7-15T04:52:25Z
2023-07-15T02:53:11Z,42.805,6.029,13.3033,4.60092,2470.693,2023-7-15T04:55:28Z
2023-07-15T02:56:15Z,42.805,6.029,13.3035,4.60099,2470.67,2023-7-15T04:58:31Z
2023-07-15T02:59:18Z,42.805,6.029,13.3031,4.60102,2470.684,2023-7-15T05:01:34Z
2023-07-15T03:02:21Z,42.805,6.029,13.3034,4.60093,2470.693,2023-7-15T05:04:37Z
2023-07-15T03:05:24Z,42.805,6.029,13.3034,4.60094,2470.67,2023-7-15T05:07:40Z
2023-07-15T03:08:27Z,42.805,6.029,13.3030,4.60097,2470.67,2023-7-15T05:10:43Z
2023-07-15T03:11:30Z,42.805,6.029,13.3029,4.60093,2470.67,2023-7-15T05:13:47Z
2023-07-15T03:14:33Z,42.805,6.029,13.3036,4.60096,2470.693,2023-7-15T05:16:50Z
2023-07-15T03:17:36Z,42.805,6.029,13.3029,4.60096,2470.707,2023-7-15T05:19:53Z
2023-07-15T03:20:39Z,42.805,6.029,13.3033,4.60095,2470.693,2023-7-15T05:22:56Z
2023-07-15T03:23:42Z,42.805,6.029,13.3036,4.60098,2470.67,2023-7-15T05:25:59Z
2023-07-15T03:26:45Z,42.805,6.029,13.3031,4.60094,2470.717,2023-7-15T05:29:02Z
2023-07-15T03:29:48Z,42.805,6.029,13.3031,4.60102,2470.693,2023-7-15T05:32:05Z
2023-07-15T03:32:51Z,42.805,6.029,13.3034,4.60094,2470.717,2023-7-15T05:35:08Z
2023-07-15T03:35:55Z,42.805,6.029,13.3034,4.60099,2470.707,2023-7-15T05:38:11Z
2023-07-15T03:38:58Z,42.805,6.029,13.3033,4.60097,2470.707,2023-7-15T05:41:14Z
2023-07-15T03:42:01Z,42.805,6.029,13.3032,4.60096,2470.693,2023-7-15T05:44:17Z
2023-07-15T03:45:04Z,42.805,6.029,13.3032,4.60101,2470.693,2023-7-15T05:47:20Z
2023-07-15T03:48:07Z,42.805,6.029,13.3034,4.60096,2470.684,2023-7-15T05:50:24Z
2023-07-15T03:51:10Z,42.805,6.029,13.3034,4.60102,2470.707,2023-7-15T05:53:27Z
2023-07-15T03:54:13Z,42.805,6.029,13.3046,4.60104,2470.67,2023-7-15T05:56:30Z
2023-07-15T03:57:16Z,42.805,6.029,13.3035,4.60102,2470.74,2023-7-15T05:59:33Z
2023-07-15T04:00:19Z,42.805,6.029,13.3034,4.60095,2470.693,2023-7-15T06:02:36Z
2023-07-15T04:03:22Z,42.805,6.029,13.3043,4.60096,2470.717,2023-7-15T06:05:39Z
2023-07-15T04:06:25Z,42.805,6.029,13.3042,4.60107,2470.707,2023-7-15T06:08:42Z
2023-07-15T04:09:28Z,42.805,6.029,13.3070,4.60113,2470.707,2023-7-15T06:11:45Z
2023-07-15T04:12:32Z,42.805,6.029,13.3035,4.60114,2470.717,2023-7-15T06:14:48Z
2023-07-15T04:15:35Z,42.805,6.029,13.3043,4.60099,2470.693,2023-7-15T06:17:51Z
2023-07-15T04:18:38Z,42.805,6.029,13.3062,4.60127,2470.754,2023-7-15T06:20:54Z
2023-07-15T04:21:41Z,42.805,6.029,13.3067,4.60133,2470.707,2023-7-15T06:23:57Z
2023-07-15T04:24:44Z,42.805,6.029,13.3061,4.60129,2470.693,2023-7-15T06:27:01Z
2023-07-15T04:27:47Z,42.805,6.029,13.3062,4.60148,2470.717,2023-7-15T06:30:04Z
2023-07-15T04:30:50Z,42.805,6.029,13.3070,4.60170,2470.73,2023-7-15T06:33:07Z
2023-07-15T04:33:53Z,42.805,6.029,13.3061,4.60166,2470.74,2023-7-15T06:36:10Z
2023-07-15T04:36:56Z,42.805,6.029,13.3058,4.60161,2470.74,2023-7-15T06:39:13Z
2023-07-15T04:39:59Z,42.805,6.029,13.3065,4.60167,2470.717,2023-7-15T06:42:16Z
2023-07-15T04:43:02Z,42.805,6.029,13.3072,4.60130,2470.707,2023-7-15T06:45:19Z
2023-07-15T04:46:05Z,42.805,6.029,13.3072,4.60127,2470.717,2023-7-15T06:48:22Z
2023-07-15T04:49:09Z,42.805,6.029,13.3066,4.60167,2470.726,2023-7-15T06:51:25Z
2023-07-15T04:52:12Z,42.805,6.029,13.3082,4.60190,2470.693,2023-7-15T06:54:28Z
2023-07-15T04:55:15Z,42.805,6.029,13.3051,4.60203,2470.707,2023-7-15T06:57:31Z
2023-07-15T04:58:18Z,42.805,6.029,13.3076,4.60163,2470.717,2023-7-15T07:00:34Z
2023-07-15T05:01:21Z,42.805,6.029,13.3070,4.60189,2470.717,2023-7-15T07:03:37Z
2023-07-15T05:04:24Z,42.805,6.029,13.3075,4.60193,2470.717,2023-7-15T07:06:41Z
2023-07-15T05:07:27Z,42.805,6.029,13.3062,4.60185,2470.717,2023-7-15T07:09:44Z
2023-07-15T05:10:30Z,42.805,6.029,13.3055,4.60165,2470.717,2023-7-15T07:12:47Z
2023-07-15T05:13:33Z,42.805,6.029,13.3070,4.60175,2470.73,2023-7-15T07:15:50Z
2023-07-15T05:16:36Z,42.805,6.029,13.3088,4.60167,2470.717,2023-7-15T07:18:53Z
2023-07-15T05:19:39Z,42.805,6.029,13.3060,4.60153,2470.717,2023-7-15T07:21:56Z
2023-07-15T05:22:42Z,42.805,6.029,13.3078,4.60195,2470.717,2023-7-15T07:24:59Z
2023-07-15T05:25:45Z,42.805,6.029,13.3059,4.60172,2470.777,2023-7-15T07:28:02Z
2023-07-15T05:28:49Z,42.805,6.029,13.3063,4.60163,2470.717,2023-7-15T07:31:05Z
2023-07-15T05:31:52Z,42.805,6.029,13.3069,4.60152,2470.717,2023-7-15T07:34:08Z
2023-07-15T05:34:55Z,42.805,6.029,13.3073,4.60193,2470.74,2023-7-15T07:37:11Z
2023-07-15T05:37:58Z,42.805,6.029,13.3063,4.60189,2470.73,2023-7-15T07:40:14Z
2023-07-15T05:41:01Z,42.805,6.029,13.3043,4.60157,2470.693,2023-7-15T07:43:18Z
2023-07-15T05:44:04Z,42.805,6.029,13.3067,4.60185,2470.717,2023-7-15T07:46:21Z
2023-07-15T05:47:07Z,42.805,6.029,13.3065,4.60153,2470.717,2023-7-15T07:49:24Z
2023-07-15T05:50:10Z,42.805,6.029,13.3051,4.60162,2470.717,2023-7-15T07:52:27Z
2023-07-15T05:53:13Z,42.805,6.029,13.3059,4.60163,2470.754,2023-7-15T07:55:30Z
2023-07-15T05:56:16Z,42.805,6.029,13.3054,4.60162,2470.73,2023-7-15T07:58:33Z
2023-07-15T05:59:19Z,42.805,6.029,13.3058,4.60153,2470.74,2023-7-15T08:01:36Z
2023-07-15T06:02:22Z,42.805,6.029,13.3062,4.60193,2470.74,2023-7-15T08:04:39Z
2023-07-15T06:05:26Z,42.805,6.029,13.3065,4.60212,2470.717,2023-7-15T08:07:42Z
2023-07-15T06:08:29Z,42.805,6.029,13.3061,4.60167,2470.707,2023-7-15T08:10:45Z
2023-07-15T06:11:32Z,42.805,6.029,13.3048,4.60191,2470.754,2023-7-15T08:13:48Z
2023-07-15T06:14:35Z,42.805,6.029,13.3054,4.60192,2470.73,2023-7-15T08:16:51Z
2023-07-15T06:17:38Z,42.805,6.029,13.3058,4.60181,2470.73,2023-7-15T08:19:55Z
2023-07-15T06:20:41Z,42.805,6.029,13.3041,4.60162,2470.74,2023-7-15T08:22:58Z
2023-07-15T06:23:44Z,42.805,6.029,13.3046,4.60141,2470.73,2023-7-15T08:26:01Z
2023-07-15T06:26:47Z,42.805,6.029,13.3046,4.60149,2470.73,2023-7-15T08:29:04Z
2023-07-15T06:29:50Z,42.805,6.029,13.3047,4.60155,2470.717,2023-7-15T08:32:07Z
2023-07-15T06:32:53Z,42.805,6.029,13.3052,4.60155,2470.693,2023-7-15T08:35:10Z
2023-07-15T06:35:56Z,42.805,6.029,13.3046,4.60170,2470.717,2023-7-15T08:38:13Z
2023-07-15T06:38:59Z,42.805,6.029,13.3046,4.60137,2470.717,2023-7-15T08:41:16Z
2023-07-15T06:42:02Z,42.805,6.029,13.3059,4.60202,2470.754,2023-7-15T08:44:19Z
2023-07-15T06:45:06Z,42.805,6.029,13.3070,4.60198,2470.693,2023-7-15T08:47:22Z
2023-07-15T06:48:09Z,42.805,6.029,13.3065,4.60147,2470.707,2023-7-15T08:50:25Z
2023-07-15T06:51:12Z,42.805,6.029,13.3051,4.60149,2470.717,2023-7-15T08:53:28Z
2023-07-15T06:54:15Z,42.805,6.029,13.3065,4.60132,2470.73,2023-7-15T08:56:31Z
2023-07-15T06:57:18Z,42.805,6.029,13.3067,4.60149,2470.693,2023-7-15T08:59:35Z
2023-07-15T07:00:21Z,42.805,6.029,13.3059,4.60161,2470.717,2023-7-15T09:02:38Z
2023-07-15T07:03:24Z,42.805,6.029,13.3067,4.60183,2470.717,2023-7-15T09:05:41Z
2023-07-15T07:06:27Z,42.805,6.029,13.3057,4.60160,2470.693,2023-7-15T09:08:44Z
2023-07-15T07:09:30Z,42.805,6.029,13.3067,4.60151,2470.73,2023-7-15T09:11:47Z
2023-07-15T07:12:33Z,42.805,6.029,13.3067,4.60144,2470.707,2023-7-15T09:14:50Z
2023-07-15T07:15:36Z,42.805,6.029,13.3069,4.60173,2470.73,2023-7-15T09:17:53Z
2023-07-15T07:18:39Z,42.805,6.029,13.3057,4.60148,2470.67,2023-7-15T09:20:56Z
2023-07-15T07:21:43Z,42.805,6.029,13.3064,4.60138,2470.717,2023-7-15T09:23:59Z
2023-07-15T07:24:46Z,42.805,6.029,13.3056,4.60112,2470.684,2023-7-15T09:27:02Z
2023-07-15T07:27:49Z,42.805,6.029,13.3054,4.60086,2470.693,2023-7-15T09:30:05Z
2023-07-15T07:30:52Z,42.805,6.029,13.3070,4.60144,2470.646,2023-7-15T09:33:08Z
2023-07-15T07:33:55Z,42.805,6.029,13.3087,4.60174,2470.684,2023-7-15T09:36:11Z
2023-07-15T07:36:58Z,42.805,6.029,13.3076,4.60109,2470.693,2023-7-15T09:39:15Z
2023-07-15T07:40:01Z,42.805,6.029,13.3079,4.60119,2470.67,2023-7-15T09:42:18Z
2023-07-15T07:43:04Z,42.805,6.029,13.3057,4.60154,2470.684,2023-7-15T09:45:21Z
2023-07-15T07:46:07Z,42.805,6.029,13.3067,4.60126,2470.707,2023-7-15T09:48:24Z
2023-07-15T07:49:10Z,42.805,6.029,13.3075,4.60155,2470.693,2023-7-15T09:51:27Z
2023-07-15T07:52:13Z,42.805,6.029,13.3092,4.60141,2470.684,2023-7-15T09:54:30Z
2023-07-15T07:55:16Z,42.805,6.029,13.3091,4.60131,2470.67,2023-7-15T09:57:33Z
2023-07-15T07:58:19Z,42.805,6.029,13.3096,4.60118,2470.67,2023-7-15T10:00:36Z
2023-07-15T08:01:23Z,42.805,6.029,13.3113,4.60132,2470.684,2023-7-15T10:03:39Z
2023-07-15T08:04:26Z,42.805,6.029,13.3114,4.60128,2470.707,2023-7-15T10:06:42Z
2023-07-15T08:07:29Z,42.805,6.029,13.3119,4.60123,2470.693,2023-7-15T10:09:45Z
2023-07-15T08:10:32Z,42.805,6.029,13.3100,4.60142,2470.684,2023-7-15T10:12:48Z
2023-07-15T08:13:35Z,42.805,6.029,13.3091,4.60150,2470.684,2023-7-15T10:15:52Z
2023-07-15T08:16:38Z,42.805,6.029,13.3094,4.60139,2470.646,2023-7-15T10:18:55Z
2023-07-15T08:19:41Z,42.805,6.029,13.3092,4.60167,2470.661,2023-7-15T10:21:58Z
2023-07-15T08:22:44Z,42.805,6.029,13.3106,4.60155,2470.661,2023-7-15T10:25:01Z
2023-07-15T08:25:47Z,42.805,6.029,13.3099,4.60145,2470.73,2023-7-15T10:28:04Z
2023-07-15T08:28:50Z,42.805,6.029,13.3100,4.60137,2470.661,2023-7-15T10:31:07Z
2023-07-15T08:31:55Z,42.805,6.029,13.3069,4.60145,2470.684,2023-7-15T10:34:11Z
2023-07-15T08:34:58Z,42.805,6.029,13.3093,4.60146,2470.646,2023-7-15T10:37:14Z
2023-07-15T08:38:01Z,42.805,6.029,13.3097,4.60135,2470.67,2023-7-15T10:40:17Z
2023-07-15T08:41:04Z,42.805,6.029,13.3094,4.60131,2470.67,2023-7-15T10:43:21Z
2023-07-15T08:44:07Z,42.805,6.029,13.3076,4.60129,2470.646,2023-7-15T10:46:24Z
2023-07-15T08:47:10Z,42.805,6.029,13.3073,4.60150,2470.67,2023-7-15T10:49:27Z
2023-07-15T08:50:13Z,42.805,6.029,13.3084,4.60140,2470.661,2023-7-15T10:52:30Z
2023-07-15T08:53:16Z,42.805,6.029,13.3084,4.60154,2470.684,2023-7-15T10:55:33Z
2023-07-15T08:56:19Z,42.805,6.029,13.3091,4.60164,2470.637,2023-7-15T10:58:36Z
2023-07-15T08:59:22Z,42.805,6.029,13.3085,4.60123,2470.661,2023-7-15T11:01:39Z
2023-07-15T09:02:26Z,42.805,6.029,13.3082,4.60150,2470.684,2023-7-15T11:04:42Z
2023-07-15T09:05:29Z,42.805,6.029,13.3082,4.60122,2470.646,2023-7-15T11:07:45Z
2023-07-15T09:08:32Z,42.805,6.029,13.3079,4.60108,2470.684,2023-7-15T11:10:48Z
2023-07-15T09:11:35Z,42.805,6.029,13.3111,4.60110,2470.661,2023-7-15T11:13:51Z
2023-07-15T09:14:38Z,42.805,6.029,13.3091,4.60115,2470.637,2023-7-15T11:16:55Z
2023-07-15T09:17:41Z,42.805,6.029,13.3112,4.60142,2470.646,2023-7-15T11:19:58Z
2023-07-15T09:20:44Z,42.805,6.029,13.3092,4.60178,2470.637,2023-7-15T11:23:01Z
2023-07-15T09:23:47Z,42.805,6.029,13.3090,4.60146,2470.637,2023-7-15T11:26:04Z
2023-07-15T09:26:50Z,42.805,6.029,13.3116,4.60125,2470.6,2023-7-15T11:29:07Z
2023-07-15T09:29:53Z,42.805,6.029,13.3111,4.60122,2470.661,2023-7-15T11:32:10Z
2023-07-15T09:32:56Z,42.805,6.029,13.3096,4.60144,2470.661,2023-7-15T11:35:13Z
2023-07-15T09:36:00Z,42.805,6.029,13.3091,4.60132,2470.6,2023-7-15T11:38:16Z
2023-07-15T09:39:03Z,42.805,6.029,13.3071,4.60137,2470.661,2023-7-15T11:41:19Z
2023-07-15T09:42:06Z,42.805,6.029,13.3096,4.60135,2470.624,2023-7-15T11:44:22Z
2023-07-15T09:45:09Z,42.805,6.029,13.3113,4.60151,2470.661,2023-7-15T11:47:25Z
2023-07-15T09:48:12Z,42.805,6.029,13.3116,4.60144,2470.614,2023-7-15T11:50:29Z
2023-07-15T09:51:15Z,42.805,6.029,13.3102,4.60127,2470.637,2023-7-15T11:53:32Z
2023-07-15T09:54:18Z,42.805,6.029,13.3111,4.60140,2470.637,2023-7-15T11:56:35Z
2023-07-15T09:57:21Z,42.805,6.029,13.3109,4.60131,2470.637,2023-7-15T11:59:38Z
2023-07-15T10:00:24Z,42.805,6.029,13.3100,4.60132,2470.661,2023-7-15T12:02:41Z
2023-07-15T10:03:27Z,42.805,6.029,13.3091,4.60161,2470.637,2023-7-15T12:05:44Z
2023-07-15T10:06:30Z,42.805,6.029,13.3068,4.60149,2470.637,2023-7-15T12:08:47Z
2023-07-15T10:09:33Z,42.805,6.029,13.3076,4.60142,2470.614,2023-7-15T12:11:50Z
2023-07-15T10:12:37Z,42.805,6.029,13.3086,4.60167,2470.614,2023-7-15T12:14:53Z
2023-07-15T10:15:40Z,42.805,6.029,13.3084,4.60147,2470.624,2023-7-15T12:17:56Z
2023-07-15T10:18:43Z,42.805,6.029,13.3090,4.60149,2470.637,2023-7-15T12:20:59Z
2023-07-15T10:21:46Z,42.805,6.029,13.3091,4.60137,2470.614,2023-7-15T12:24:02Z
2023-07-15T10:24:49Z,42.805,6.029,13.3099,4.60154,2470.628,2023-7-15T12:27:06Z
2023-07-15T10:27:52Z,42.805,6.029,13.3102,4.60170,2470.637,2023-7-15T12:30:09Z
2023-07-15T10:30:53Z,42.805,6.029,13.3046,4.60185,2470.6,2023-7-15T12:33:10Z
2023-07-15T10:33:56Z,42.805,6.029,13.3028,4.60161,2470.624,2023-7-15T12:36:13Z
2023-07-15T10:36:59Z,42.805,6.029,13.3026,4.60207,2470.614,2023-7-15T12:39:16Z
2023-07-15T10:40:03Z,42.805,6.029,13.3026,4.60186,2470.614,2023-7-15T12:42:19Z
2023-07-15T10:43:06Z,42.805,6.029,13.3028,4.60202,2470.614,2023-7-15T12:45:22Z
2023-07-15T10:46:09Z,42.805,6.029,13.3024,4.60219,2470.637,2023-7-15T12:48:25Z
2023-07-15T10:49:12Z,42.805,6.029,13.3022,4.60174,2470.637,2023-7-15T12:51:28Z
2023-07-15T10:52:15Z,42.805,6.029,13.3028,4.60180,2470.614,2023-7-15T12:54:32Z
2023-07-15T10:55:18Z,42.805,6.029,13.3027,4.60193,2470.591,2023-7-15T12:57:35Z
2023-07-15T10:58:21Z,42.805,6.029,13.3024,4.60191,2470.577,2023-7-15T13:00:38Z
2023-07-15T11:01:24Z,42.805,6.029,13.3025,4.60176,2470.591,2023-7-15T13:03:41Z
2023-07-15T11:04:27Z,42.805,6.029,13.3027,4.60178,2470.591,2023-7-15T13:06:44Z
2023-07-15T11:07:30Z,42.805,6.029,13.3026,4.60203,2470.577,2023-7-15T13:09:47Z
2023-07-15T11:10:33Z,42.805,6.029,13.3029,4.60185,2470.6,2023-7-15T13:12:50Z
2023-07-15T11:13:37Z,42.805,6.029,13.3028,4.60195,2470.577,2023-7-15T13:15:53Z
2023-07-15T11:16:40Z,42.805,6.029,13.3027,4.60202,2470.567,2023-7-15T13:18:56Z
2023-07-15T11:19:43Z,42.805,6.029,13.3029,4.60200,2470.591,2023-7-15T13:21:59Z
2023-07-15T11:22:46Z,42.805,6.029,13.3026,4.60191,2470.614,2023-7-15T13:25:02Z
2023-07-15T11:25:49Z,42.805,6.029,13.3031,4.60160,2470.6,2023-7-15T13:28:06Z
2023-07-15T11:28:52Z,42.805,6.029,13.3031,4.60188,2470.591,2023-7-15T13:31:09Z
2023-07-15T11:31:55Z,42.805,6.029,13.3027,4.60204,2470.624,2023-7-15T13:34:12Z
2023-07-15T11:34:58Z,42.805,6.029,13.3029,4.60210,2470.614,2023-7-15T13:37:15Z
2023-07-15T11:38:01Z,42.805,6.029,13.3028,4.60201,2470.591,2023-7-15T13:40:18Z
2023-07-15T11:41:04Z,42.805,6.029,13.3031,4.60128,2470.577,2023-7-15T13:43:21Z
2023-07-15T11:44:07Z,42.805,6.029,13.3031,4.60137,2470.591,2023-7-15T13:46:24Z
2023-07-15T11:47:10Z,42.805,6.029,13.3027,4.60133,2470.577,2023-7-15T13:49:27Z
2023-07-15T11:50:14Z,42.805,6.029,13.3027,4.60127,2470.577,2023-7-15T13:52:30Z
2023-07-15T11:53:17Z,42.805,6.029,13.3032,4.60120,2470.577,2023-7-15T13:55:33Z
2023-07-15T11:56:20Z,42.805,6.029,13.3027,4.60116,2470.614,2023-7-15T13:58:36Z
2023-07-15T11:59:23Z,42.805,6.029,13.3031,4.60120,2470.591,2023-7-15T14:01:39Z
2023-07-15T12:02:26Z,42.805,6.029,13.3028,4.60125,2470.577,2023-7-15T14:04:43Z
2023-07-15T12:05:29Z,42.805,6.029,13.3026,4.60125,2470.577,2023-7-15T14:07:46Z
2023-07-15T12:08:32Z,42.805,6.029,13.3031,4.60114,2470.577,2023-7-15T14:10:49Z
2023-07-15T12:11:35Z,42.805,6.029,13.3029,4.60111,2470.6,2023-7-15T14:13:52Z
2023-07-15T12:14:38Z,42.805,6.029,13.3027,4.60113,2470.591,2023-7-15T14:16:55Z
2023-07-15T12:17:41Z,42.805,6.029,13.3030,4.60112,2470.577,2023-7-15T14:19:58Z
2023-07-15T12:20:44Z,42.805,6.029,13.3026,4.60120,2470.6,2023-7-15T14:23:01Z
2023-07-15T12:23:47Z,42.805,6.029,13.3027,4.60114,2470.614,2023-7-15T14:26:04Z
2023-07-15T12:26:51Z,42.805,6.029,13.3026,4.60114,2470.591,2023-7-15T14:29:07Z
2023-07-15T12:29:54Z,42.805,6.029,13.3032,4.60119,2470.637,2023-7-15T14:32:10Z
2023-07-15T12:32:57Z,42.805,6.029,13.3030,4.60119,2470.624,2023-7-15T14:35:13Z
2023-07-15T12:36:00Z,42.805,6.029,13.3034,4.60116,2470.577,2023-7-15T14:38:17Z
2023-07-15T12:39:03Z,42.805,6.029,13.3027,4.60104,2470.614,2023-7-15T14:41:20Z
2023-07-15T12:42:06Z,42.805,6.029,13.3033,4.60112,2470.614,2023-7-15T14:44:23Z
2023-07-15T12:45:09Z,42.805,6.029,13.3029,4.60099,2470.614,2023-7-15T14:47:26Z
2023-07-15T12:48:12Z,42.805,6.029,13.3029,4.60097,2470.577,2023-7-15T14:50:29Z
2023-07-15T12:51:15Z,42.805,6.029,13.3032,4.60099,2470.591,2023-7-15T14:53:32Z
2023-07-15T12:54:18Z,42.805,6.029,13.3029,4.60110,2470.624,2023-7-15T14:56:35Z
2023-07-15T12:57:21Z,42.805,6.029,13.3031,4.60096,2470.6,2023-7-15T14:59:38Z
2023-07-15T13:00:25Z,42.805,6.029,13.3030,4.60104,2470.6,2023-7-15T15:02:41Z
2023-07-15T13:03:28Z,42.805,6.029,13.3028,4.60109,2470.6,2023-7-15T15:05:44Z
2023-07-15T13:06:31Z,42.805,6.029,13.3031,4.60108,2470.614,2023-7-15T15:08:47Z
2023-07-15T13:09:34Z,42.805,6.029,13.3031,4.60114,2470.646,2023-7-15T15:11:51Z
2023-07-15T13:12:37Z,42.805,6.029,13.3028,4.60110,2470.6,2023-7-15T15:14:54Z
2023-07-15T13:15:40Z,42.805,6.029,13.3031,4.60097,2470.637,2023-7-15T15:17:57Z
2023-07-15T13:18:43Z,42.805,6.029,13.3032,4.60104,2470.624,2023-7-15T15:21:00Z
2023-07-15T13:21:46Z,42.805,6.029,13.3035,4.60102,2470.6,2023-7-15T15:24:03Z
2023-07-15T13:24:49Z,42.805,6.029,13.3029,4.60104,2470.624,2023-7-15T15:27:06Z
2023-07-15T13:27:52Z,42.805,6.029,13.3029,4.60094,2470.6,2023-7-15T15:30:09Z
2023-07-15T13:30:55Z,42.805,6.029,13.3029,4.60092,2470.637,2023-7-15T15:33:12Z
2023-07-15T13:33:59Z,42.805,6.029,13.3031,4.60095,2470.614,2023-7-15T15:36:15Z
2023-07-15T13:37:02Z,42.805,6.029,13.3034,4.60096,2470.586,2023-7-15T15:39:18Z
2023-07-15T13:40:05Z,42.805,6.029,13.3031,4.60096,2470.646,2023-7-15T15:42:21Z
2023-07-15T13:43:08Z,42.805,6.029,13.3028,4.60094,2470.6,2023-7-15T15:45:24Z
2023-07-15T13:46:11Z,42.805,6.029,13.3032,4.60104,2470.553,2023-7-15T15:48:28Z
2023-07-15T13:49:14Z,42.805,6.029,13.3032,4.60100,2470.6,2023-7-15T15:51:31Z
2023-07-15T13:52:17Z,42.805,6.029,13.3030,4.60101,2470.637,2023-7-15T15:54:34Z
2023-07-15T13:55:20Z,42.805,6.029,13.3031,4.60095,2470.6,2023-7-15T15:57:37Z
2023-07-15T13:58:23Z,42.805,6.029,13.3032,4.60094,2470.661,2023-7-15T16:00:40Z
2023-07-15T14:01:26Z,42.805,6.029,13.3029,4.60096,2470.661,2023-7-15T16:03:43Z
2023-07-15T14:04:29Z,42.805,6.029,13.3029,4.60100,2470.637,2023-7-15T16:06:46Z
2023-07-15T14:07:32Z,42.805,6.029,13.3031,4.60102,2470.624,2023-7-15T16:09:49Z
2023-07-15T14:10:36Z,42.805,6.029,13.3030,4.60103,2470.646,2023-7-15T16:12:52Z
2023-07-15T14:13:39Z,42.805,6.029,13.3035,4.60097,2470.661,2023-7-15T16:15:55Z
2023-07-15T14:16:42Z,42.805,6.029,13.3034,4.60104,2470.661,2023-7-15T16:18:58Z
2023-07-15T14:19:45Z,42.805,6.029,13.3034,4.60105,2470.624,2023-7-15T16:22:02Z
2023-07-15T14:22:48Z,42.805,6.029,13.3032,4.60099,2470.684,2023-7-15T16:25:05Z
2023-07-15T14:25:51Z,42.805,6.029,13.3030,4.60099,2470.646,2023-7-15T16:28:08Z
2023-07-15T14:28:54Z,42.805,6.029,13.3031,4.60097,2470.67,2023-7-15T16:31:11Z
2023-07-15T14:31:56Z,42.805,6.029,13.3029,4.60101,2470.646,2023-7-15T16:34:13Z
2023-07-15T14:34:59Z,42.805,6.029,13.3029,4.60099,2470.646,2023-7-15T16:37:16Z
2023-07-15T14:38:02Z,42.805,6.029,13.3027,4.60099,2470.684,2023-7-15T16:40:19Z
2023-07-15T14:41:05Z,42.805,6.029,13.3033,4.60098,2470.624,2023-7-15T16:43:22Z
2023-07-15T14:44:08Z,42.805,6.029,13.3029,4.60106,2470.67,2023-7-15T16:46:25Z
2023-07-15T14:47:11Z,42.805,6.029,13.3035,4.60102,2470.646,2023-7-15T16:49:28Z
2023-07-15T14:50:14Z,42.805,6.029,13.3034,4.60101,2470.646,2023-7-15T16:52:31Z
2023-07-15T14:53:18Z,42.805,6.029,13.3029,4.60098,2470.67,2023-7-15T16:55:34Z
2023-07-15T14:56:21Z,42.805,6.029,13.3034,4.60097,2470.707,2023-7-15T16:58:37Z
2023-07-15T14:59:24Z,42.805,6.029,13.3039,4.60101,2470.684,2023-7-15T17:01:40Z
2023-07-15T15:02:27Z,42.805,6.029,13.3034,4.60096,2470.646,2023-7-15T17:04:44Z
2023-07-15T15:05:30Z,42.805,6.029,13.3036,4.60097,2470.693,2023-7-15T17:07:47Z
2023-07-15T15:08:33Z,42.805,6.029,13.3039,4.60097,2470.684,2023-7-15T17:10:50Z
2023-07-15T15:11:36Z,42.805,6.029,13.3036,4.60096,2470.693,2023-7-15T17:13:53Z